DLH5NP EDDF-LIML

Flight info

Callsign DLH5NP
Flight time 0h 51m
Altitude 35000
Route ANEKI2L/18 ANEKI Y163 NATOR DCT TRA DCT RIPUS DCT GERSA DCT SOSON DCT ODINA
Aircraft A319/M-SDE3FGHIRWY/LB1

Departure

Time 2026-04-18 09:16
Airport Frankfurt Main Airport (EDDF)

Arrival

Time 2026-04-18 10:08
Airport Milano Linate Airport (LIML)
Time Latitude Longitude Altitude Speed Heading
2026-04-18 08:36 50.04890 8.59588 370 ft 0 kts 297°
2026-04-18 09:01 50.04886 8.59600 373 ft 3 kts 297°
2026-04-18 09:01 50.04876 8.59629 371 ft 3 kts 296°
2026-04-18 09:02 50.04869 8.59658 371 ft 3 kts 272°
2026-04-18 09:02 50.04871 8.59686 370 ft 2 kts 249°
2026-04-18 09:02 50.04867 8.59668 370 ft 3 kts 249°
2026-04-18 09:02 50.04861 8.59644 372 ft 0 kts 249°
2026-04-18 09:04 50.04859 8.59636 370 ft 2 kts 249°
2026-04-18 09:05 50.04850 8.59599 370 ft 5 kts 250°
2026-04-18 09:05 50.04846 8.59527 370 ft 8 kts 276°
2026-04-18 09:05 50.04864 8.59437 371 ft 9 kts 289°
2026-04-18 09:05 50.04860 8.59327 368 ft 11 kts 250°
2026-04-18 09:06 50.04833 8.59211 372 ft 12 kts 250°
2026-04-18 09:06 50.04803 8.59088 368 ft 12 kts 249°
2026-04-18 09:06 50.04773 8.58960 374 ft 13 kts 250°
2026-04-18 09:06 50.04755 8.58884 370 ft 1 kts 250°
2026-04-18 09:07 50.04753 8.58878 370 ft 0 kts 250°
2026-04-18 09:12 50.04749 8.58861 370 ft 4 kts 250°
2026-04-18 09:12 50.04732 8.58794 368 ft 8 kts 243°
2026-04-18 09:12 50.04689 8.58766 370 ft 6 kts 187°
2026-04-18 09:12 50.04650 8.58759 370 ft 6 kts 187°
2026-04-18 09:13 50.04635 8.58756 370 ft 0 kts 187°
2026-04-18 09:14 50.04634 8.58756 370 ft 1 kts 187°
2026-04-18 09:14 50.04609 8.58745 371 ft 6 kts 205°
2026-04-18 09:14 50.04564 8.58689 371 ft 10 kts 220°
2026-04-18 09:14 50.04510 8.58618 371 ft 7 kts 219°
2026-04-18 09:15 50.04481 8.58563 370 ft 5 kts 250°
2026-04-18 09:15 50.04479 8.58554 370 ft 0 kts 250°
2026-04-18 09:15 50.04478 8.58552 370 ft 1 kts 250°
2026-04-18 09:16 50.04443 8.58406 370 ft 46 kts 249°
2026-04-18 09:16 50.04239 8.57550 367 ft 119 kts 249°
2026-04-18 09:16 50.03895 8.56087 488 ft 159 kts 252°
2026-04-18 09:16 50.03493 8.54468 1150 ft 159 kts 250°
2026-04-18 09:17 50.03101 8.52855 1865 ft 160 kts 251°
2026-04-18 09:17 50.02671 8.51257 2551 ft 161 kts 238°
2026-04-18 09:17 50.01796 8.50188 3188 ft 164 kts 202°
2026-04-18 09:17 50.00708 8.49589 3755 ft 172 kts 201°
2026-04-18 09:18 49.99491 8.49001 4064 ft 196 kts 190°
2026-04-18 09:18 49.98088 8.49494 4380 ft 224 kts 146°
2026-04-18 09:18 49.97054 8.51338 5199 ft 230 kts 127°
2026-04-18 09:18 49.95886 8.52990 5977 ft 234 kts 158°
2026-04-18 09:19 49.94791 8.53376 6249 ft 247 kts 181°
2026-04-18 09:19 49.93012 8.53229 6842 ft 264 kts 183°
2026-04-18 09:19 49.91145 8.53208 7719 ft 270 kts 180°
2026-04-18 09:19 49.89251 8.53295 8659 ft 275 kts 179°
2026-04-18 09:20 49.87322 8.53432 9572 ft 280 kts 178°
2026-04-18 09:20 49.85353 8.53590 10426 ft 286 kts 178°
2026-04-18 09:20 49.83297 8.53754 10855 ft 308 kts 179°
2026-04-18 09:20 49.81080 8.53922 11239 ft 328 kts 179°
2026-04-18 09:21 49.78773 8.54088 11924 ft 336 kts 180°
2026-04-18 09:21 49.76428 8.53918 12682 ft 341 kts 187°
2026-04-18 09:21 49.74043 8.53602 13461 ft 346 kts 188°
2026-04-18 09:21 49.71627 8.53281 14186 ft 351 kts 188°
2026-04-18 09:22 49.69185 8.52958 14864 ft 355 kts 188°
2026-04-18 09:22 49.66704 8.52629 15561 ft 359 kts 188°
2026-04-18 09:22 49.64208 8.52297 16238 ft 363 kts 188°
2026-04-18 09:22 49.61674 8.51962 16916 ft 367 kts 188°
2026-04-18 09:23 49.59118 8.51628 17602 ft 371 kts 188°
2026-04-18 09:23 49.56531 8.51292 18277 ft 375 kts 188°
2026-04-18 09:23 49.53927 8.50953 18885 ft 378 kts 188°
2026-04-18 09:23 49.51290 8.50608 19488 ft 381 kts 188°
2026-04-18 09:24 49.48632 8.50258 20105 ft 384 kts 188°
2026-04-18 09:24 49.45962 8.49906 20716 ft 387 kts 188°
2026-04-18 09:24 49.43265 8.49549 21315 ft 390 kts 188°
2026-04-18 09:24 49.40555 8.49188 21901 ft 393 kts 188°
2026-04-18 09:25 49.37815 8.48825 22502 ft 396 kts 188°
2026-04-18 09:25 49.35063 8.48466 23094 ft 399 kts 188°
2026-04-18 09:25 49.32272 8.48106 23672 ft 402 kts 187°
2026-04-18 09:25 49.29468 8.47745 24125 ft 406 kts 187°
2026-04-18 09:26 49.26653 8.47383 24580 ft 408 kts 188°
2026-04-18 09:26 49.23812 8.47016 25033 ft 411 kts 188°
2026-04-18 09:26 49.20911 8.46643 25477 ft 413 kts 188°
2026-04-18 09:26 49.18042 8.46274 25905 ft 416 kts 188°
2026-04-18 09:27 49.15182 8.45901 26331 ft 419 kts 188°
2026-04-18 09:27 49.12236 8.45518 26762 ft 421 kts 188°
2026-04-18 09:27 49.09303 8.45137 27188 ft 424 kts 188°
2026-04-18 09:27 49.06358 8.44691 27598 ft 425 kts 192°
2026-04-18 09:28 49.03476 8.43759 28025 ft 425 kts 197°
2026-04-18 09:28 49.00582 8.42737 28446 ft 428 kts 197°
2026-04-18 09:28 48.97670 8.41712 28836 ft 430 kts 197°
2026-04-18 09:28 48.94750 8.40691 29226 ft 433 kts 197°
2026-04-18 09:29 48.91799 8.39666 29630 ft 436 kts 197°
2026-04-18 09:29 48.88832 8.38638 30025 ft 438 kts 197°
2026-04-18 09:29 48.85852 8.37610 30388 ft 441 kts 197°
2026-04-18 09:29 48.82862 8.36580 30693 ft 443 kts 197°
2026-04-18 09:30 48.79847 8.35541 31008 ft 445 kts 197°
2026-04-18 09:30 48.76831 8.34488 31308 ft 447 kts 197°
2026-04-18 09:30 48.73796 8.33394 31599 ft 449 kts 197°
2026-04-18 09:30 48.70748 8.32273 31931 ft 449 kts 197°
2026-04-18 09:31 48.67724 8.31154 32373 ft 448 kts 197°
2026-04-18 09:31 48.64698 8.30037 32802 ft 447 kts 197°
2026-04-18 09:31 48.61687 8.28935 33237 ft 445 kts 197°
2026-04-18 09:31 48.58673 8.27840 33674 ft 444 kts 197°
2026-04-18 09:32 48.55667 8.26748 34118 ft 443 kts 197°
2026-04-18 09:32 48.52677 8.25668 34485 ft 443 kts 196°
2026-04-18 09:32 48.49616 8.24988 34863 ft 446 kts 187°
2026-04-18 09:32 48.46507 8.25045 35213 ft 450 kts 178°
2026-04-18 09:33 48.43401 8.25734 35562 ft 451 kts 174°
2026-04-18 09:33 48.40304 8.26497 35907 ft 450 kts 174°
2026-04-18 09:33 48.37206 8.27255 36248 ft 449 kts 174°
2026-04-18 09:33 48.34093 8.28013 36548 ft 449 kts 174°
2026-04-18 09:34 48.31005 8.28761 36864 ft 448 kts 174°
2026-04-18 09:34 48.27935 8.29502 37137 ft 448 kts 174°
2026-04-18 09:34 48.21803 8.30976 37192 ft 445 kts 174°
2026-04-18 09:35 48.15686 8.32445 37190 ft 444 kts 174°
2026-04-18 09:35 48.09582 8.33915 37190 ft 445 kts 174°
2026-04-18 09:36 48.03477 8.35387 37192 ft 444 kts 174°
2026-04-18 09:36 47.97368 8.36870 37194 ft 444 kts 174°
2026-04-18 09:37 47.91273 8.38354 37180 ft 444 kts 174°
2026-04-18 09:37 47.85162 8.39822 37186 ft 444 kts 174°
2026-04-18 09:38 47.79057 8.41281 37187 ft 445 kts 174°
2026-04-18 09:38 47.72947 8.42740 37201 ft 445 kts 174°
2026-04-18 09:39 47.66830 8.44148 37194 ft 444 kts 176°
2026-04-18 09:39 47.60694 8.45101 37204 ft 443 kts 178°
2026-04-18 09:40 47.54547 8.45862 37210 ft 443 kts 179°
2026-04-18 09:40 47.48393 8.46695 37203 ft 444 kts 178°
2026-04-18 09:41 47.42240 8.47605 37210 ft 444 kts 178°
2026-04-18 09:41 47.36090 8.48530 37215 ft 444 kts 178°
2026-04-18 09:42 47.29898 8.49444 37219 ft 444 kts 178°
2026-04-18 09:42 47.23749 8.50338 37212 ft 444 kts 178°
2026-04-18 09:43 47.17592 8.51234 37204 ft 444 kts 178°
2026-04-18 09:43 47.11447 8.52127 37204 ft 444 kts 178°
2026-04-18 09:44 47.05300 8.53014 37190 ft 444 kts 178°
2026-04-18 09:44 46.99153 8.53903 37193 ft 444 kts 178°
2026-04-18 09:45 46.92981 8.54797 37200 ft 445 kts 177°
2026-04-18 09:45 46.86839 8.55683 36469 ft 444 kts 178°
2026-04-18 09:46 46.83767 8.56121 35701 ft 446 kts 178°
2026-04-18 09:46 46.80671 8.56563 34971 ft 447 kts 177°
2026-04-18 09:46 46.77574 8.57007 34261 ft 448 kts 177°
2026-04-18 09:46 46.74460 8.57452 33483 ft 449 kts 177°
2026-04-18 09:47 46.71358 8.57894 32901 ft 446 kts 177°
2026-04-18 09:47 46.68293 8.58333 32295 ft 441 kts 177°
2026-04-18 09:47 46.65241 8.58770 31678 ft 439 kts 177°
2026-04-18 09:47 46.62219 8.59200 31122 ft 436 kts 177°
2026-04-18 09:48 46.59209 8.59625 30592 ft 433 kts 177°
2026-04-18 09:48 46.56214 8.60049 30026 ft 431 kts 177°
2026-04-18 09:48 46.53239 8.60470 29429 ft 427 kts 177°
2026-04-18 09:48 46.50259 8.60894 28829 ft 424 kts 177°
2026-04-18 09:49 46.47368 8.61305 28228 ft 421 kts 177°
2026-04-18 09:49 46.44458 8.61718 27661 ft 418 kts 177°
2026-04-18 09:49 46.41538 8.62135 27118 ft 415 kts 177°
2026-04-18 09:49 46.38706 8.62537 26582 ft 412 kts 177°
2026-04-18 09:50 46.35829 8.62942 26034 ft 410 kts 176°
2026-04-18 09:50 46.32998 8.63337 25574 ft 407 kts 177°
2026-04-18 09:50 46.30179 8.63728 25112 ft 405 kts 176°
2026-04-18 09:50 46.28323 8.63987 24818 ft 404 kts 176°
2026-04-18 09:51 46.25532 8.64381 24354 ft 402 kts 176°
2026-04-18 09:51 46.22752 8.64773 23847 ft 401 kts 176°
2026-04-18 09:51 46.19977 8.65164 23267 ft 400 kts 176°
2026-04-18 09:51 46.17214 8.65552 22775 ft 396 kts 176°
2026-04-18 09:52 46.14484 8.65932 22292 ft 394 kts 176°
2026-04-18 09:52 46.11777 8.66463 21843 ft 392 kts 169°
2026-04-18 09:52 46.09180 8.67618 21340 ft 390 kts 158°
2026-04-18 09:52 46.06766 8.69357 20801 ft 387 kts 152°
2026-04-18 09:53 46.04410 8.71219 20324 ft 385 kts 152°
2026-04-18 09:53 46.02066 8.73065 19876 ft 382 kts 152°
2026-04-18 09:53 45.99747 8.74883 19472 ft 379 kts 152°
2026-04-18 09:53 45.97435 8.76689 19068 ft 376 kts 152°
2026-04-18 09:54 45.95140 8.78477 18657 ft 373 kts 152°
2026-04-18 09:54 45.92867 8.80245 18204 ft 372 kts 152°
2026-04-18 09:54 45.90573 8.82028 17731 ft 370 kts 152°
2026-04-18 09:54 45.88310 8.83786 17276 ft 367 kts 152°
2026-04-18 09:55 45.86073 8.85526 16843 ft 364 kts 152°
2026-04-18 09:55 45.83851 8.87257 16412 ft 362 kts 152°
2026-04-18 09:55 45.81652 8.88964 15893 ft 358 kts 151°
2026-04-18 09:55 45.79469 8.90656 15384 ft 354 kts 151°
2026-04-18 09:56 45.77318 8.92325 14864 ft 351 kts 151°
2026-04-18 09:56 45.75181 8.93981 14345 ft 348 kts 151°
2026-04-18 09:56 45.73064 8.95620 13818 ft 345 kts 151°
2026-04-18 09:56 45.70964 8.97242 13256 ft 341 kts 151°
2026-04-18 09:57 45.68895 8.98838 12705 ft 337 kts 151°
2026-04-18 09:57 45.66830 9.00433 12164 ft 334 kts 151°
2026-04-18 09:57 45.64800 9.01997 11628 ft 330 kts 152°
2026-04-18 09:57 45.62783 9.03546 11102 ft 327 kts 152°
2026-04-18 09:58 45.60789 9.05075 10633 ft 322 kts 152°
2026-04-18 09:58 45.58870 9.06550 10485 ft 306 kts 152°
2026-04-18 09:58 45.57018 9.07974 10157 ft 299 kts 152°
2026-04-18 09:58 45.55192 9.09374 9702 ft 297 kts 152°
2026-04-18 09:59 45.53358 9.10777 9237 ft 293 kts 152°
2026-04-18 09:59 45.51577 9.12079 8781 ft 289 kts 158°
2026-04-18 09:59 45.49623 9.12832 8303 ft 286 kts 173°
2026-04-18 10:00 45.45689 9.13279 7276 ft 282 kts 176°
2026-04-18 10:00 45.43743 9.13493 6814 ft 279 kts 176°
2026-04-18 10:00 45.41821 9.13708 6336 ft 276 kts 176°
2026-04-18 10:00 45.39922 9.13923 5821 ft 273 kts 175°
2026-04-18 10:01 45.38028 9.14139 5297 ft 272 kts 175°
2026-04-18 10:01 45.36139 9.14349 4776 ft 271 kts 174°
2026-04-18 10:01 45.34274 9.14559 4288 ft 268 kts 174°
2026-04-18 10:01 45.32427 9.14767 3820 ft 265 kts 173°
2026-04-18 10:02 45.30601 9.14981 3336 ft 261 kts 171°
2026-04-18 10:02 45.28925 9.15766 3033 ft 248 kts 148°
2026-04-18 10:02 45.27699 9.17299 2997 ft 225 kts 126°
2026-04-18 10:02 45.27017 9.19184 2999 ft 207 kts 106°
2026-04-18 10:03 45.26843 9.21130 3001 ft 193 kts 88°
2026-04-18 10:03 45.27100 9.22938 3044 ft 185 kts 71°
2026-04-18 10:03 45.27706 9.24541 3013 ft 184 kts 59°
2026-04-18 10:03 45.28373 9.26070 3006 ft 183 kts 59°
2026-04-18 10:04 45.29092 9.27565 3007 ft 184 kts 49°
2026-04-18 10:04 45.30122 9.28647 2912 ft 188 kts 28°
2026-04-18 10:04 45.31389 9.29090 2688 ft 190 kts
2026-04-18 10:04 45.32706 9.28976 2455 ft 189 kts 357°
2026-04-18 10:05 45.34017 9.28835 2196 ft 186 kts 358°
2026-04-18 10:05 45.35283 9.28698 1956 ft 179 kts 357°
2026-04-18 10:05 45.36484 9.28568 1726 ft 168 kts 358°
2026-04-18 10:05 45.37621 9.28446 1515 ft 158 kts 359°
2026-04-18 10:06 45.38675 9.28333 1300 ft 146 kts 359°
2026-04-18 10:06 45.39660 9.28227 1109 ft 140 kts 357°
2026-04-18 10:06 45.40642 9.28123 932 ft 141 kts 357°
2026-04-18 10:06 45.41618 9.28019 752 ft 139 kts 356°
2026-04-18 10:07 45.42581 9.27917 568 ft 139 kts 358°
2026-04-18 10:07 45.43539 9.27812 395 ft 137 kts 357°
2026-04-18 10:07 45.44403 9.27718 361 ft 104 kts 355°
2026-04-18 10:07 45.44953 9.27659 364 ft 54 kts 355°
2026-04-18 10:08 45.45171 9.27635 360 ft 19 kts 355°
2026-04-18 10:08 45.45299 9.27655 358 ft 19 kts 20°
2026-04-18 10:08 45.45414 9.27736 359 ft 15 kts 26°
2026-04-18 10:08 45.45474 9.27808 363 ft 11 kts 24°
2026-04-18 10:09 45.45551 9.27815 361 ft 12 kts
2026-04-18 10:09 45.45634 9.27816 360 ft 12 kts
2026-04-18 10:09 45.45722 9.27817 360 ft 13 kts
2026-04-18 10:09 45.45815 9.27819 360 ft 13 kts
2026-04-18 10:10 45.45884 9.27821 360 ft 7 kts
2026-04-18 10:10 45.45907 9.27872 363 ft 7 kts 86°
2026-04-18 10:10 45.45907 9.27944 364 ft 6 kts 90°
2026-04-18 10:10 45.45935 9.27967 361 ft 6 kts 359°
2026-04-18 10:11 45.45965 9.27967 360 ft 2 kts 360°
2026-04-18 10:11 45.45973 9.27967 360 ft 0 kts 360°